Date,TemperatureHighF,TemperatureAvgF,TemperatureLowF,DewpointHighF,DewpointAvgF,DewpointLowF,HumidityHigh,HumidityAvg,HumidityLow,PressureMaxIn,PressureMinIn,WindSpeedMaxMPH,WindSpeedAvgMPH,GustSpeedMaxMPH,PrecipitationSumIn
2014-1-10,43,38,37,42,36,35,95,93,92,30.14,30.11,0,0,0,0.00
2014-1-16,74,58,40,44,37,32,72,50,24,30.06,29.97,2,0,0,0.00
2014-1-17,71,47,33,44,34,28,87,65,28,30.04,29.96,4,0,0,0.00
2014-1-18,73,47,33,41,33,28,89,64,24,30.02,29.91,5,0,0,0.00
2014-1-24,64,60,51,45,42,40,72,54,42,30.06,30.00,3,0,0,0.00
2014-1-31,62,60,54,39,35,30,48,40,30,29.92,29.89,6,0,0,0.00
2014-2-3,53,41,35,40,36,32,93,83,60,29.94,29.87,4,0,0,0.01
2014-2-4,37,35,34,35,33,32,94,93,92,29.96,29.93,0,0,0,0.00
2014-2-7,54,54,54,50,50,50,88,87,87,29.93,29.93,1,0,0,0.29
2014-2-8,60,56,53,58,54,50,95,92,85,30.03,29.92,11,0,0,0.62
2014-2-9,59,57,56,58,56,54,96,95,91,30.03,29.94,6,0,0,0.65
2014-2-10,56,52,50,55,51,48,96,95,94,30.11,29.98,2,0,0,0.00
2014-2-17,63,53,41,46,43,38,91,70,50,30.04,29.97,8,1,0,0.00
2014-2-18,65,50,40,51,44,38,96,80,52,30.06,29.95,5,0,0,0.00
2014-2-19,65,53,42,51,45,39,98,76,46,30.07,29.96,7,0,0,0.01
2014-2-20,67,51,38,46,39,36,95,70,35,30.07,29.97,4,0,0,0.00
2014-2-21,70,50,38,48,40,36,94,73,35,29.98,29.89,4,0,0,0.00
2014-2-25,66,58,52,52,49,46,84,70,59,29.82,29.75,6,0,0,0.00
2014-2-26,59,56,53,55,54,47,95,91,79,29.81,29.54,10,0,0,0.81
2014-2-27,65,58,53,53,50,47,88,75,55,29.76,29.41,10,0,0,0.02
2014-2-28,58,56,54,54,53,52,94,91,83,29.29,29.24,3,0,0,1.01
2014-3-3,61,57,53,53,51,50,93,82,68,29.94,29.92,3,0,0,0.04
2014-3-4,67,61,53,57,55,51,92,81,69,29.96,29.90,3,0,0,0.01
2014-3-12,76,69,53,44,39,35,63,36,24,29.91,29.84,8,0,0,0.00
2014-3-19,75,68,56,46,42,38,65,42,27,29.90,29.85,3,0,0,0.00
2014-3-24,78,67,50,56,46,39,81,50,27,30.00,29.86,5,0,0,0.00
2014-3-26,60,56,52,49,48,47,84,73,65,29.80,29.73,6,0,0,0.50
2014-4-14,67,60,56,53,52,51,84,74,58,29.93,29.89,0,0,0,0.00
2014-4-15,75,66,50,56,51,45,84,60,41,29.86,29.74,5,0,0,0.00
2014-4-16,58,57,57,49,49,49,75,74,73,29.70,29.70,0,0,0,0.00
2014-4-22,63,60,58,43,41,39,54,49,41,29.97,29.95,14,3,0,0.00
2014-4-25,57,53,50,52,47,43,93,81,70,29.75,29.66,9,0,0,0.22
2014-4-26,62,53,43,44,42,39,91,68,46,29.96,29.72,13,1,0,0.00
2014-4-27,68,58,49,52,47,43,83,68,48,29.98,29.89,9,0,0,0.00
2014-4-28,75,63,52,50,42,35,70,46,30,30.04,30.00,5,0,0,0.00
2014-4-29,88,68,46,51,45,42,89,52,22,30.06,29.89,4,0,0,0.00
2014-4-30,92,85,69,53,50,43,48,31,20,29.93,29.84,4,0,0,0.00
2014-5-5,65,63,61,47,46,46,58,55,51,29.85,29.84,10,1,0,0.00
2014-5-7,70,61,54,49,46,44,73,59,45,29.87,29.81,12,1,0,0.00
2014-5-8,68,65,60,56,55,50,83,70,62,29.95,29.89,6,0,0,0.00
2014-5-10,63,59,55,45,44,44,68,59,51,29.92,29.89,10,1,0,0.00
2014-5-11,78,76,71,41,39,35,33,26,23,29.95,29.86,12,2,0,0.00
2014-5-12,88,79,60,50,42,35,61,31,15,29.93,29.86,10,0,0,0.00
2014-5-13,94,79,49,50,44,33,79,34,15,29.99,29.91,5,0,0,0.00
2014-5-14,96,84,56,51,45,38,74,30,16,29.99,29.87,7,0,0,0.00
2014-5-15,94,77,51,51,43,36,72,34,17,29.95,29.87,8,0,0,0.00
2014-5-16,85,65,47,57,47,38,80,55,24,29.94,29.84,10,0,0,0.00
2014-5-17,78,62,47,53,46,40,94,61,29,29.88,29.81,6,0,0,0.00
2014-5-18,72,62,55,53,49,44,81,63,44,29.86,29.81,10,0,0,0.00
2014-5-19,68,62,55,52,49,47,85,63,50,29.84,29.79,12,1,0,0.00
2014-5-20,72,60,48,54,50,45,92,71,47,29.86,29.80,9,0,0,0.00
2014-5-21,80,63,48,57,51,45,95,68,36,29.84,29.75,10,0,0,0.00
2014-5-22,55,55,54,51,50,48,87,84,80,29.82,29.81,0,0,0,0.00
2014-5-28,74,73,73,41,40,39,31,29,29,29.90,29.90,2,0,0,0.00
2014-5-29,85,77,56,45,38,31,56,27,16,29.78,29.72,7,0,0,0.00
2014-5-30,78,67,53,53,50,47,79,55,37,29.82,29.77,7,0,0,0.00
2014-5-31,78,70,55,56,54,50,86,57,44,29.81,29.75,7,0,0,0.00
2014-6-1,82,74,59,58,56,52,79,54,41,29.75,29.64,6,0,0,0.00
2014-6-2,71,62,54,53,51,49,82,68,52,29.77,29.72,10,1,0,0.00
2014-6-3,66,58,53,53,50,48,86,75,60,29.79,29.75,1,0,0,0.00
2014-6-4,81,76,64,59,57,54,70,53,46,29.69,29.66,4,0,0,0.00
2014-6-5,78,76,72,58,57,55,57,52,49,29.66,29.64,3,0,0,0.00
2014-6-6,60,60,60,54,54,54,81,80,80,29.69,29.69,0,0,0,0.00
2014-6-9,69,65,61,58,57,56,86,76,66,29.58,29.56,1,0,0,0.00
2014-6-10,82,68,55,62,57,53,92,71,47,29.67,29.57,7,0,0,0.00
2014-6-11,77,68,59,58,55,52,77,63,51,29.76,29.70,4,0,0,0.00
2014-6-12,77,68,54,53,50,45,83,53,34,29.84,29.80,8,1,0,0.00
2014-6-13,82,82,81,55,54,52,41,38,36,29.80,29.79,5,2,0,0.00
2014-6-14,63,63,63,43,43,43,48,48,48,29.70,29.70,0,0,0,0.00
2014-6-15,76,69,58,55,51,47,69,54,46,29.70,29.66,5,0,0,0.00
2014-6-16,70,64,55,50,47,45,72,55,43,29.79,29.76,11,1,0,0.00
2014-6-26,61,60,58,53,52,51,81,77,73,29.84,29.83,0,0,0,0.01
2014-6-27,72,57,53,57,52,50,92,84,59,29.85,29.81,3,0,0,0.00
2014-6-30,89,74,63,62,59,58,83,62,40,29.66,29.62,5,0,0,0.00
2014-7-1,84,68,59,62,58,55,90,74,47,29.68,29.64,6,0,0,0.00
2014-7-2,82,72,57,61,56,51,86,58,40,29.76,29.69,9,0,0,0.00
2014-7-3,84,67,52,59,54,49,90,66,40,29.79,29.72,7,0,0,0.00
2014-7-4,82,66,53,60,55,50,94,70,43,29.86,29.75,6,0,0,0.00
2014-7-5,84,67,53,61,56,50,92,70,43,29.92,29.84,5,0,0,0.00
2014-7-6,84,66,49,60,55,46,93,70,41,29.91,29.78,6,0,0,0.00
2014-7-7,82,67,53,62,56,50,92,72,45,29.79,29.67,5,0,0,0.00
2014-7-8,65,64,63,58,58,57,81,79,77,29.76,29.75,1,0,0,0.00
2014-7-9,81,78,67,62,59,55,66,53,47,29.78,29.68,5,0,0,0.00
2014-7-13,81,72,62,62,60,57,84,65,50,29.78,29.74,5,0,0,0.00
2014-7-14,84,69,55,64,59,52,94,71,47,29.78,29.70,4,0,0,0.00
2014-7-15,82,71,63,65,61,58,83,73,57,29.86,29.83,3,0,0,0.00
2014-7-16,84,74,63,63,59,55,76,60,42,29.87,29.80,11,1,0,0.00
2014-7-17,79,72,62,62,58,55,77,62,52,29.86,29.79,13,0,0,0.00
2014-7-18,82,69,61,63,58,55,82,69,50,29.87,29.78,6,0,0,0.00
2014-7-19,78,66,60,63,58,54,83,74,58,29.82,29.79,7,0,0,0.00
2014-7-23,73,67,63,57,57,55,78,69,54,29.92,29.90,2,0,0,0.00
2014-7-24,85,73,63,61,56,50,86,58,30,29.87,29.68,1,0,0,0.00
2014-7-25,99,87,66,62,55,47,78,37,18,29.74,29.65,5,0,0,0.00
2014-7-26,90,72,54,66,58,48,89,64,39,29.81,29.73,6,0,0,0.00
2014-7-28,80,74,67,63,61,58,75,65,56,29.91,29.88,4,0,0,0.00
2014-7-29,84,79,65,64,61,59,83,56,45,29.92,29.82,9,0,0,0.00
2014-7-30,80,72,63,62,60,58,84,68,51,29.83,29.78,3,0,0,0.00
2014-7-31,83,74,61,64,61,57,87,66,51,29.84,29.74,7,0,0,0.00
2014-8-1,78,60,55,64,56,52,94,87,61,29.78,29.75,3,0,0,0.00
2014-8-2,77,68,62,61,58,56,81,73,56,29.78,29.74,2,0,0,0.00
2014-8-3,77,71,61,61,58,54,78,63,54,29.81,29.75,7,0,0,0.00
2014-8-4,78,75,71,61,60,58,67,60,55,29.84,29.80,6,0,0,0.00
2014-8-9,80,72,57,60,56,51,82,60,48,29.85,29.76,7,0,0,0.00
2014-8-10,79,69,57,60,57,52,82,66,53,29.84,29.76,2,0,0,0.00
2014-8-11,80,76,67,62,60,56,69,57,51,29.80,29.73,9,0,0,0.00
2014-8-12,75,69,61,59,57,54,78,65,56,29.83,29.75,2,0,0,0.00
2014-8-13,84,73,56,62,59,52,88,63,45,29.86,29.76,6,0,0,0.00
2014-8-14,82,75,62,62,59,53,83,59,37,29.80,29.73,7,0,0,0.00
2014-8-15,82,73,60,63,60,56,88,66,51,29.85,29.78,6,0,0,0.00
2014-8-16,81,69,58,63,59,54,90,73,50,29.90,29.80,5,0,0,0.00
2014-8-17,81,68,56,62,58,53,93,73,50,29.89,29.76,5,0,0,0.00
2014-8-18,62,62,58,58,57,54,91,84,82,29.78,29.74,0,0,0,0.00
2014-9-10,93,79,60,64,59,55,88,55,28,29.76,29.66,4,0,0,0.00
2014-9-11,90,69,52,63,57,49,92,69,34,29.77,29.66,4,0,0,0.00
2014-9-12,86,76,60,64,60,56,84,60,42,29.75,29.64,7,0,0,0.00
2014-9-13,82,67,54,64,58,52,94,76,50,29.72,29.62,5,0,0,0.00
2014-9-14,80,63,56,62,57,53,93,84,54,29.72,29.67,4,0,0,0.00
2014-9-15,83,73,59,60,54,51,76,54,37,29.79,29.72,5,0,0,0.00
2014-9-16,86,75,61,61,58,55,82,57,39,29.73,29.64,4,0,0,0.00
2014-9-17,82,70,57,63,58,53,89,69,39,29.68,29.59,6,0,0,0.00
2014-9-18,74,69,67,64,63,61,88,80,64,29.73,29.62,3,0,0,0.01
2014-9-19,82,74,62,65,62,58,87,67,54,29.76,29.68,5,0,0,0.00
2014-9-20,62,62,62,57,57,56,83,82,80,29.80,29.79,1,0,0,0.00
2014-9-21,78,72,60,63,60,56,86,68,57,29.88,29.81,5,0,0,0.00
2014-9-22,81,78,75,62,61,60,61,56,52,29.89,29.82,4,0,0,0.00
2014-9-23,81,75,62,64,62,58,85,63,53,29.87,29.75,5,0,0,0.00
2014-9-24,79,77,74,64,64,63,69,64,59,29.74,29.73,4,0,0,0.00
2014-9-25,73,72,69,61,51,57,74,66,58,29.86,29.82,6,0,0,0.00
2014-9-26,63,62,60,56,55,54,83,79,74,29.80,29.78,0,0,0,0.00
2014-9-27,76,64,55,60,55,52,93,76,52,29.80,29.68,5,0,0,0.00
2014-9-28,77,63,52,61,56,50,95,79,55,29.82,29.68,5,0,0,0.00
2014-9-29,75,60,53,61,54,50,94,83,56,29.86,29.81,4,0,0,0.00
2014-9-30,77,76,76,61,60,59,60,57,54,29.77,29.73,3,1,0,0.00
2014-10-1,84,83,82,47,46,44,30,27,25,29.75,29.73,3,0,0,0.00
2014-10-3,94,74,60,59,51,44,66,48,18,29.94,29.84,1,0,0,0.00
2014-10-4,94,72,54,54,48,43,71,50,18,29.90,29.80,2,0,0,0.00
2014-10-5,94,79,58,61,55,48,77,48,22,29.80,29.71,4,0,0,0.00
2014-10-6,85,62,51,62,54,47,93,77,43,29.79,29.73,2,0,0,0.00
2014-10-8,59,58,57,54,53,52,84,82,81,29.77,29.76,1,0,0,0.00
2014-10-9,74,68,58,61,58,54,93,71,61,29.84,29.77,5,0,0,0.00
2014-10-10,72,70,64,59,58,56,74,65,62,29.92,29.84,5,0,0,0.00
2014-10-11,78,74,64,60,58,56,77,60,54,29.91,29.85,4,0,0,0.00
2014-10-12,84,84,84,43,42,41,24,24,23,29.81,29.81,2,1,0,0.00
2014-10-13,89,77,51,58,48,40,84,42,21,29.82,29.74,5,0,0,0.00
2014-10-14,69,66,64,57,56,55,74,69,62,29.71,29.66,11,1,0,0.00
2014-10-15,61,61,60,56,56,55,83,82,82,29.85,29.84,0,0,0,0.01
2014-10-18,59,58,56,54,53,53,88,85,83,29.76,29.75,0,0,0,0.00
2014-10-19,78,66,54,63,57,51,91,73,53,29.77,29.70,5,0,0,0.00
2014-10-20,67,58,53,60,54,51,95,87,70,29.84,29.75,7,0,0,0.00
2014-10-21,70,66,55,52,47,44,77,53,39,29.95,29.89,6,0,0,0.00
2014-10-22,60,56,51,52,51,49,93,83,75,29.93,29.92,0,0,0,0.00
2014-10-23,74,66,57,59,56,52,86,70,55,29.85,29.82,2,0,0,0.00
2014-10-24,75,69,63,60,57,54,75,66,56,29.79,29.73,4,0,0,0.00
2014-10-25,71,65,58,58,56,54,86,71,60,29.96,29.91,6,0,0,0.16
2014-10-27,70,69,66,54,52,49,63,54,48,29.91,29.85,4,0,0,0.00
2014-10-29,83,81,77,56,52,49,48,37,33,29.86,29.82,3,0,0,0.00
2014-10-30,72,68,62,58,57,55,82,68,56,29.80,29.77,1,0,0,0.00
2014-10-31,60,59,59,57,56,56,92,91,87,29.72,29.68,2,0,0,0.15
2014-11-2,46,45,44,42,42,41,88,87,85,30.03,30.02,0,0,0,0.00
2014-11-3,69,62,45,49,46,42,87,58,48,30.13,30.05,1,0,0,0.00
2014-11-4,72,63,50,53,48,45,83,60,39,30.18,30.07,3,0,0,0.00
2014-11-5,77,71,59,55,51,48,71,50,40,30.04,29.92,4,0,0,0.00
2014-11-6,75,63,52,57,53,49,88,72,50,30.08,30.01,3,0,0,0.00
2014-11-7,73,65,46,60,56,45,95,75,62,30.09,29.95,4,0,0,0.00
2014-11-19,66,63,56,58,57,54,91,80,72,29.98,29.88,5,0,0,0.08
2014-11-20,58,54,48,57,53,46,95,94,92,29.91,29.84,0,0,0,0.25
2014-11-21,63,58,54,56,54,52,96,86,72,29.99,29.91,3,0,0,0.01
2014-11-22,64,57,47,62,53,44,95,86,74,30.11,29.94,10,0,0,0.11
2014-11-23,65,52,42,48,44,40,93,74,45,30.19,30.10,2,0,0,0.01
2014-11-24,66,47,38,46,39,36,94,77,34,30.27,30.17,3,0,0,0.00
2014-11-25,67,64,59,48,44,41,53,47,41,30.30,30.21,3,0,0,0.00
2014-11-30,59,56,54,57,54,53,95,94,93,29.86,29.75,0,0,0,0.50
2014-12-1,66,60,52,61,57,50,96,90,75,29.98,29.85,3,0,0,0.01
2014-12-2,59,57,55,58,56,54,96,96,95,29.70,29.55,1,0,0,1.98
2014-12-3,65,63,62,61,60,58,92,88,80,29.65,29.59,7,0,0,1.51
2014-12-4,65,56,52,58,53,51,95,91,78,29.87,29.80,0,0,0,0.01
2014-12-5,65,61,58,60,58,57,96,91,82,29.94,29.84,1,0,0,0.29
2014-12-6,60,57,55,58,56,54,96,96,95,30.08,29.94,0,0,0,0.17
2014-12-7,64,56,50,59,54,48,96,92,80,30.08,29.98,1,0,0,0.00
2014-12-8,51,50,50,49,49,49,95,95,95,30.03,30.01,0,0,0,0.00
2014-12-9,64,63,62,59,59,58,87,86,84,30.05,30.02,0,0,0,0.00
2014-12-10,63,61,57,57,56,55,93,82,76,29.82,29.63,4,0,0,0.01
2014-12-11,57,53,51,55,51,50,96,95,94,29.53,29.46,5,0,0,3.80
2014-12-15,52,51,50,51,50,49,96,95,95,29.76,29.73,0,0,0,1.22
2014-12-16,58,53,51,53,51,50,95,93,77,29.78,29.67,4,0,0,0.70
2014-12-17,56,55,55,52,52,51,91,90,88,29.89,29.88,0,0,0,0.02
2014-12-18,60,57,53,54,48,50,90,84,76,30.01,29.98,0,0,0,0.01
2014-12-19,55,55,55,54,54,54,96,96,95,30.02,29.99,0,0,0,0.29
2014-12-20,61,56,53,57,54,52,97,92,78,30.12,29.98,1,0,0,0.04
2014-12-21,65,58,52,60,56,50,96,92,82,30.19,30.10,7,0,0,0.00
2014-12-22,64,57,49,58,53,47,97,89,75,30.15,30.04,4,0,0,0.01
2014-12-23,69,57,46,56,50,44,100,80,54,30.07,29.98,4,0,0,0.01
2014-12-24,60,52,44,55,48,43,96,88,73,29.99,29.82,13,0,0,0.04
2014-12-25,57,49,39,38,36,34,88,65,43,29.98,29.91,12,0,0,0.01
2014-12-26,45,40,37,37,35,33,87,82,72,30.10,30.04,0,0,0,0.00
2014-12-27,56,48,37,39,36,33,88,64,43,30.23,30.16,3,0,0,0.01
2014-12-28,50,50,49,44,44,43,80,79,78,30.10,30.10,0,0,0,0.00
2015-1-1,40,34,32,30,28,26,83,77,66,30.03,29.99,0,0,0,0.00
2015-1-2,39,34,31,33,30,27,89,85,79,30.05,30.00,0,0,0,0.00